[[{"header":{"parameterUnit":"m.s-1","parameterCategory":1,"la1":30.2991,"la2":30.254,"lo1":-89.0895,"lo2":-89.0444,"dy":0.0017,"dx":0.0017,"nx":28,"ny":28,"refTime":"2025-05-25T09:00:00:Z","depth":0,"parameterNumber":2,"parameterNumberName":"U-component_of_WINDS"},"data":[0,0,0,0,0,0,0,0,0,0,0,0,0,0,0,0,0,0,0,0,0,0,0,0,0,0,0,0,0,0,0,0,0,0,0,0,0,0,0,0,0,0,0,0,0,0,0,0,0,0,0,0,0,0,0,0,0,0,1.1463,1.1464,0,1.1472,1.1472,1.1472,1.144,1.1439,1.1439,1.1438,1.1448,1.1449,1.145,0,0,0,0,0,0,0,0,0,0,0,0,0,1.1421,1.1422,1.1463,1.1464,1.1464,1.1472,1.1472,1.1472,1.1441,1.1439,1.1438,1.1437,1.1447,1.1449,1.145,0,0,0,0,0,0,0,0,0,0,0,0,0,1.1435,1.1422,1.1463,1.1449,1.1448,1.1472,1.1472,1.1472,1.1441,1.1439,1.1438,1.1437,1.1447,1.1449,1.145,1.1489,0,0,1.1456,1.1456,0,0,0,0,0,0,0,0,1.1435,1.1437,1.1451,1.145,1.1449,1.1454,1.146,1.1478,1.1441,1.1444,1.1438,1.1436,1.1451,1.1452,1.1457,1.149,1.149,1.1456,1.1457,1.1457,1.1458,0,0,0,0,0,0,0,1.1434,1.1436,1.1467,1.1451,1.145,1.1442,1.1443,1.1464,1.1455,1.1443,1.1441,1.1442,1.145,1.1455,1.1457,1.149,1.1456,1.1457,1.1458,1.1459,1.1553,1.1555,0,0,0,0,0,0,1.1434,1.1436,1.1466,1.1467,1.1438,1.1444,1.1445,1.1453,1.1455,1.1454,1.1443,1.1441,1.1453,1.1455,1.1457,1.1501,1.1457,1.1459,1.146,1.1552,1.1553,1.1555,0,0,0,0,0,0,1.1434,1.1437,1.1466,1.1451,1.1454,1.1446,1.1456,1.1454,1.146,1.1455,1.1453,1.145,1.1452,1.1455,1.1481,1.1501,1.146,1.1461,1.155,1.1552,1.1554,1.159,0,0,0,0,0,0,1.1433,1.1437,1.1452,1.1451,1.1455,1.149,1.1458,1.1456,1.1462,1.1459,1.1461,1.146,1.1451,1.1478,1.1483,1.1503,1.1463,1.1548,1.1551,1.1554,1.1587,1.1594,1.1599,0,0,0,0,0,1.1431,1.1463,1.1453,1.1457,1.1473,1.1491,1.1493,1.1482,1.1464,1.1479,1.1475,1.146,1.1498,1.1481,1.1486,1.1507,1.1547,1.155,1.1553,1.1585,1.1592,1.1599,0,0,0,0,0,0,1.1467,1.1462,1.1452,1.1484,1.1488,1.1486,1.1503,1.149,1.15,1.1496,1.1482,1.1483,1.1511,1.1512,1.1493,1.1543,1.152,1.1524,1.1542,1.1549,1.1555,1.1554,1.1464,0,0,0,0,0,1.1478,1.1493,1.1488,1.1517,1.152,1.1511,1.1519,1.151,1.1514,1.1515,1.1514,1.1519,1.1532,1.1541,1.1553,1.1588,1.1587,1.1604,1.161,1.1615,1.1618,1.1635,1.1642,1.1566,1.1566,1.1566,0,0,1.1502,1.1502,1.1512,1.1524,1.1526,1.1542,1.1513,1.1531,1.1542,1.1518,1.1542,1.1541,1.1546,1.1576,1.1589,1.1577,1.1639,1.1619,1.1623,1.1624,1.1639,1.1646,1.1653,1.1568,1.1568,1.1567,0,0,1.1553,1.1555,1.1578,1.1581,1.1584,1.1578,1.1583,1.1583,1.1581,1.1605,1.1587,1.16,1.1623,1.1626,1.1631,1.1682,1.1668,1.1687,1.1717,1.1733,1.1739,1.1744,1.1761,1.1768,1.1691,1.1691,1.1691,0,1.1583,1.1605,1.1592,1.161,1.1616,1.1594,1.1617,1.1621,1.1628,1.1632,1.1618,1.1646,1.1647,1.1677,1.1689,1.1695,1.17,1.1686,1.1739,1.1744,1.1749,1.1765,1.1772,1.1693,1.1693,1.1692,1.1692,0,1.164,1.1656,1.1674,1.168,1.1688,1.1709,1.1699,1.1708,1.1699,1.1694,1.1718,1.1719,1.173,1.1736,1.1727,1.1765,1.1757,1.1742,1.1717,1.1759,1.1773,1.1779,1.1696,1.1695,1.1695,1.1694,0,0,1.1714,1.1712,1.1719,1.172,1.1722,1.1734,1.1753,1.1763,1.1771,1.1777,1.1792,1.1811,1.1797,1.1802,1.1794,1.1808,1.1847,1.1791,1.1791,1.18,1.1886,1.1896,1.1904,1.1838,1.1839,1.184,1.1885,0,1.1763,1.1795,1.1784,1.1817,1.183,1.181,1.1826,1.1829,1.1825,1.1836,1.1832,1.1846,1.1826,1.1829,1.1843,1.1839,1.1864,1.1836,1.1851,1.1852,1.1849,1.1912,1.1923,1.1966,1.1891,1.1892,1.1893,0,1.1824,1.1831,1.1865,1.1863,1.1868,1.1883,1.189,1.1901,1.1904,1.19,1.1905,1.1893,1.1912,1.1888,1.1913,1.1894,1.19,1.1899,1.1901,1.1901,1.1874,1.1912,1.1979,1.1985,1.1902,1.1901,1.1901,0,1.1872,1.189,1.1912,1.1915,1.1913,1.1924,1.1924,1.1925,1.1931,1.1938,1.1941,1.1951,1.1955,1.1963,1.1953,1.1937,1.1979,1.1955,1.1976,1.1976,1.1985,1.1984,1.2053,1.1991,1.1991,1.1991,1.1991,0,1.1927,1.1948,1.1933,1.1947,1.197,1.1957,1.198,1.1978,1.1979,1.1991,1.1975,1.1987,1.1974,1.1985,1.1978,1.1999,1.2002,1.1999,1.1996,1.2,1.2,1.2002,1.1998,1.1993,1.1992,1.1992,1.1992,0,1.1984,1.1975,1.1998,1.1994,1.1994,1.2011,1.2007,1.2019,1.2014,1.203,1.2033,1.2025,1.2037,1.2029,1.2041,1.2036,1.2064,1.2058,1.2062,1.206,1.2081,1.2078,1.2152,1.2161,1.2095,1.2096,1.2096,0,1.2019,1.2035,1.2032,1.2039,1.2039,1.2051,1.2057,1.2044,1.2051,1.2054,1.2066,1.2076,1.2084,1.2104,1.21,1.2109,1.2102,1.2127,1.2103,1.2105,1.21,1.2099,1.21,1.2132,1.2132,1.2133,1.2134,0,1.2081,1.2075,1.2084,1.2091,1.2098,1.2103,1.2107,1.2114,1.2101,1.2109,1.2121,1.2126,1.2138,1.2149,1.2156,1.2156,1.2142,1.2141,1.2146,1.2149,1.215,1.2148,1.2074,1.2139,1.2139,1.2138,1.2138,1.2138,1.2127,1.2139,1.2139,1.2148,1.215,1.2153,1.2164,1.216,1.2169,1.2177,1.2169,1.2183,1.2184,1.2192,1.2194,1.2204,1.2194,1.2202,1.2203,1.2205,1.2207,1.215,1.2206,1.2206,1.2206,1.2206,1.2205,0,1.2186,1.2185,1.2194,1.2199,1.2207,1.2193,1.2196,1.2204,1.2215,1.2217,1.2225,1.2238,1.2247,1.2243,1.2252,1.2261,1.2255,1.2263,1.2262,1.2261,1.2217,1.2211,1.2268,1.2268,1.2268,1.2268,1.2268,1.2268,1.2218,1.2237,1.2232,1.2252,1.225,1.2263,1.2265,1.2268,1.227,1.2284,1.2292,1.2289,1.2288,1.2296,1.2304,1.2303,1.2306,1.2317,1.2313,1.2271,1.2265,1.2259,1.2253,1.2318,1.2318,1.2356,1.2357,1.2357]},{"header":{"parameterUnit":"m.s-1","parameterCategory":1,"la1":30.2991,"la2":30.254,"lo1":-89.0895,"lo2":-89.0444,"dy":0.0017,"dx":0.0017,"nx":28,"ny":28,"refTime":"2025-05-25T09:00:00:Z","depth":0,"parameterNumber":3,"parameterNumberName":"V-component_of_WINDS"},"data":[0,0,0,0,0,0,0,0,0,0,0,0,0,0,0,0,0,0,0,0,0,0,0,0,0,0,0,0,0,0,0,0,0,0,0,0,0,0,0,0,0,0,0,0,0,0,0,0,0,0,0,0,0,0,0,0,0,0,4.1037,4.1038,0,4.1109,4.1109,4.111,4.1071,4.1069,4.1067,4.1065,4.1135,4.1139,4.1143,0,0,0,0,0,0,0,0,0,0,0,0,0,4.0865,4.0868,4.1037,4.1038,4.1039,4.1108,4.1109,4.111,4.1071,4.1069,4.1067,4.1064,4.1134,4.1138,4.1143,0,0,0,0,0,0,0,0,0,0,0,0,0,4.0938,4.0869,4.1037,4.1028,4.1028,4.1108,4.1109,4.1111,4.1072,4.1069,4.1066,4.1063,4.1133,4.1138,4.1143,4.1236,0,0,4.116,4.1163,0,0,0,0,0,0,0,0,4.0934,4.0944,4.1029,4.1029,4.1029,4.1078,4.1074,4.1152,4.1073,4.1055,4.1065,4.1062,4.1118,4.1125,4.1145,4.1239,4.1242,4.1161,4.1164,4.1167,4.1168,0,0,0,0,0,0,0,4.0929,4.0941,4.1065,4.103,4.103,4.1019,4.1027,4.1089,4.1102,4.1056,4.1054,4.1063,4.1118,4.1139,4.1146,4.1243,4.1161,4.1166,4.1169,4.1171,4.1415,4.1418,0,0,0,0,0,0,4.0925,4.0937,4.1063,4.1068,4.0973,4.1025,4.1033,4.1065,4.1101,4.1104,4.1065,4.1061,4.1131,4.114,4.1148,4.1258,4.1166,4.1172,4.1175,4.1412,4.1416,4.142,0,0,0,0,0,0,4.0921,4.0936,4.106,4.1002,4.1017,4.1031,4.1067,4.1068,4.1089,4.1108,4.111,4.1085,4.1129,4.114,4.1214,4.126,4.1174,4.1179,4.1409,4.1413,4.1418,4.1479,0,0,0,0,0,0,4.0916,4.0935,4.0971,4.1003,4.102,4.1126,4.107,4.1072,4.1099,4.1094,4.1127,4.113,4.1128,4.1206,4.122,4.1266,4.1183,4.1404,4.1411,4.1416,4.1473,4.1485,4.1496,0,0,0,0,0,4.091,4.0985,4.0973,4.0989,4.1066,4.1129,4.1139,4.1136,4.1103,4.1139,4.1151,4.1129,4.1253,4.1214,4.1229,4.1278,4.1402,4.1409,4.1416,4.1468,4.1483,4.1495,0,0,0,0,0,0,4.0958,4.0989,4.0976,4.1064,4.1094,4.1122,4.1168,4.1152,4.1192,4.1185,4.1179,4.1187,4.1263,4.1278,4.1234,4.1368,4.1322,4.1332,4.1356,4.1371,4.1382,4.1377,4.1188,0,0,0,0,0,4.0979,4.1029,4.1053,4.1128,4.1144,4.1153,4.1181,4.1176,4.1207,4.1219,4.1236,4.1266,4.1312,4.1342,4.1385,4.1475,4.1481,4.1515,4.1527,4.1536,4.1545,4.1593,4.1608,4.1443,4.1443,4.1443,0,0,4.1022,4.1045,4.1077,4.1138,4.1161,4.1212,4.1164,4.122,4.1258,4.1227,4.1298,4.1312,4.1345,4.1427,4.1463,4.1441,4.1592,4.1545,4.1552,4.1556,4.1602,4.1617,4.1631,4.1448,4.1447,4.1446,0,0,4.1127,4.115,4.1215,4.1239,4.1274,4.128,4.1296,4.1326,4.1334,4.1405,4.1384,4.1427,4.1506,4.153,4.1553,4.1666,4.1647,4.168,4.174,4.1786,4.1799,4.1811,4.1851,4.1865,4.1689,4.1689,4.1689,0,4.1176,4.1253,4.125,4.1308,4.1335,4.131,4.1375,4.1398,4.1445,4.1464,4.1438,4.1536,4.1557,4.1644,4.1671,4.169,4.1707,4.1677,4.1798,4.1809,4.182,4.1858,4.1873,4.1693,4.1693,4.1692,4.1692,0,4.1312,4.1365,4.1413,4.146,4.1492,4.1553,4.1558,4.1591,4.1583,4.1591,4.1663,4.1687,4.1734,4.1754,4.1747,4.184,4.1825,4.1799,4.1752,4.184,4.1875,4.189,4.1699,4.1697,4.1696,4.1695,0,0,4.1449,4.1494,4.1511,4.1532,4.1569,4.161,4.1669,4.1716,4.1744,4.1777,4.1826,4.1893,4.1869,4.1895,4.189,4.1931,4.2018,4.1899,4.19,4.192,4.2121,4.2141,4.2158,4.2006,4.2008,4.2011,4.2118,0,4.1556,4.1661,4.1659,4.1756,4.1805,4.1782,4.1833,4.1861,4.187,4.1912,4.1921,4.1969,4.1934,4.1949,4.1988,4.1999,4.2058,4.1991,4.205,4.2052,4.2043,4.2176,4.2197,4.2298,4.2132,4.2135,4.2136,0,4.1696,4.1734,4.1836,4.1866,4.1886,4.1932,4.1975,4.2015,4.2046,4.2049,4.2078,4.2066,4.2125,4.2077,4.2157,4.2112,4.2136,4.2144,4.2148,4.2154,4.21,4.2185,4.233,4.2345,4.2158,4.2157,4.2155,0,4.1785,4.1863,4.1933,4.1952,4.1988,4.2021,4.2037,4.2065,4.2093,4.213,4.2148,4.219,4.2214,4.2247,4.2246,4.2211,4.2328,4.2279,4.2331,4.2331,4.2357,4.2355,4.2507,4.2373,4.2372,4.2372,4.2372,0,4.1905,4.1968,4.1974,4.2018,4.2087,4.2084,4.2153,4.2165,4.219,4.2235,4.2217,4.226,4.2257,4.2299,4.2299,4.2366,4.2376,4.238,4.2379,4.2382,4.2381,4.2397,4.239,4.2376,4.2375,4.2374,4.2374,0,4.2017,4.2024,4.2099,4.2127,4.2136,4.2186,4.2209,4.225,4.2257,4.2314,4.2327,4.2338,4.2387,4.239,4.2446,4.2446,4.2526,4.2518,4.2517,4.2515,4.2566,4.2561,4.2734,4.2756,4.2607,4.2609,4.261,0,4.2093,4.2141,4.2174,4.2204,4.2222,4.2269,4.2298,4.2296,4.2326,4.2364,4.24,4.2448,4.2486,4.2564,4.2577,4.2619,4.2612,4.2669,4.2618,4.2619,4.2612,4.2609,4.2614,4.2679,4.2681,4.2682,4.2683,0,4.2227,4.2228,4.227,4.2314,4.2349,4.2383,4.2415,4.2439,4.2441,4.2476,4.2526,4.2556,4.2613,4.266,4.2702,4.2717,4.27,4.2699,4.2713,4.2716,4.2713,4.2715,4.2544,4.2695,4.2694,4.2693,4.2693,4.2692,4.2323,4.2365,4.2395,4.2442,4.2466,4.2496,4.2536,4.2548,4.259,4.2637,4.2633,4.2689,4.2717,4.2771,4.279,4.2832,4.2813,4.2833,4.2838,4.2844,4.2849,4.2707,4.284,4.284,4.2839,4.2839,4.2839,0,4.2456,4.2474,4.2518,4.2563,4.2601,4.2582,4.2616,4.2648,4.2698,4.2726,4.2764,4.2821,4.2866,4.2882,4.2926,4.2957,4.295,4.2968,4.2966,4.2969,4.2864,4.2848,4.2973,4.2973,4.2973,4.2973,4.2973,4.2973,4.253,4.2599,4.2603,4.2683,4.27,4.2755,4.2776,4.2803,4.2826,4.2891,4.2929,4.2939,4.2962,4.3007,4.3047,4.305,4.3067,4.3089,4.3089,4.299,4.2977,4.2964,4.2948,4.3092,4.3093,4.319,4.3191,4.3192]}]]